This is the latest recevied weather packets stored in our database for station/object KC0RPY. If no packets are shown the sender has not sent any weather packets the latest 10 day(s).
| Time | Temp. | Humidity | Pressure | Rain* | Wind** | Luminosity | Snow |
|---|---|---|---|---|---|---|---|
| 1777298506 | 15° C | 99% | 1002.4 hPa | 0 mm | - | 211 W/m² | - |
| 1777298203 | 15° C | 99% | 1002.4 hPa | 0 mm | - | 251 W/m² | - |
| 1777297899 | 15° C | 99% | 1002.4 hPa | 0 mm | - | 152 W/m² | - |
| 1777297596 | 15° C | 99% | 1002 hPa | 0 mm | - | 103 W/m² | - |
| 1777297293 | 14.44° C | 99% | 1002.7 hPa | 0 mm | - | 78 W/m² | - |
| 1777296990 | 14.44° C | 99% | 1002.4 hPa | 0 mm | - | 81 W/m² | - |
| 1777296687 | 14.44° C | 99% | 1002 hPa | 0 mm | - | 69 W/m² | - |
| 1777296368 | 14.44° C | 99% | 1002.4 hPa | 0 mm | - | 68 W/m² | - |
| 1777296063 | 14.44° C | 99% | 1002.7 hPa | 0 mm | - | 67 W/m² | - |
| 1777295760 | 14.44° C | 99% | 1002 hPa | 0 mm | - | 62 W/m² | - |
| 1777295457 | 14.44° C | 99% | 1002 hPa | 0 mm | - | 61 W/m² | - |
| 1777295154 | 14.44° C | 99% | 1002.4 hPa | 0 mm | - | 62 W/m² | - |
| 1777294851 | 14.44° C | 99% | 1002.4 hPa | 0 mm | - | 57 W/m² | - |
| 1777294546 | 14.44° C | 99% | 1002.4 hPa | 0 mm | - | 52 W/m² | - |
| 1777294243 | 14.44° C | 99% | 1002.4 hPa | 0 mm | - | 49 W/m² | - |
| 1777293940 | 14.44° C | 99% | 1002.4 hPa | 0 mm | - | 39 W/m² | - |
| 1777293636 | 14.44° C | 99% | 1002 hPa | 0 mm | - | 29 W/m² | - |
| 1777293332 | 14.44° C | 99% | 1002 hPa | 0 mm | - | 22 W/m² | - |
| 1777293027 | 14.44° C | 99% | 1002.4 hPa | 0 mm | - | 16 W/m² | - |
| 1777292727 | 13.89° C | 99% | 1002.4 hPa | 0 mm | - | 11 W/m² | - |
| 1777292423 | 13.89° C | 99% | 1002 hPa | 0 mm | - | 5 W/m² | - |
| 1777292120 | 14.44° C | 99% | 1002 hPa | 0 mm | - | 2 W/m² | - |
| 1777291816 | 13.89° C | 99% | 1002.4 hPa | 0 mm | - | 0 W/m² | - |
| 1777291513 | 13.89° C | 99% | 1002.4 hPa | 0 mm | - | 0 W/m² | - |
| 1777291210 | 13.89° C | 99% | 1002.4 hPa | 0 mm | - | 0 W/m² | - |
* Rain latest hour (hover to see other rain measurements)
** Current wind speed in m/s (hover to see current wind gust speed)